Location: La Pernelle
(49.6188°N, 1.2999°W)
Time: 18:42:59
(UTC+00:00)

SL-16 R/B - Pass Details

Date: 31 October 2021
Orbit: 842 x 846 km, 71.0° (Epoch: 28 November)

Event Time Altitude Azimuth Distance (km) Brightness Sun altitude
Rises 19:42:31 0° 277° (W) 3,406 6.6 -29.2°
Reaches altitude 10° 19:46:23 10° 303° (WNW) 2,474 5.4 -29.8°
Maximum altitude 19:49:07 14° 332° (NNW) 2,233 4.8 -30.2°
Drops below altitude 10° 19:51:53 10° 1° (N) 2,479 4.7 -30.7°
Enters shadow 19:53:21 - 13° (NNE) 2,776 4.9 -30.9°
